Monroe, MI

9:08 PM EDT on May 27, 2017 (GMT -0400)
Custer

Weather History for KTTF - November, 2012

Change the Weather History Date:

Monday, November 5, 2012

  Actual Average Record
Temperature  
Mean Temperature 35 °F -  
Max Temperature 44 °F 51 °F 73 °F (1978)
Min Temperature 26 °F 36 °F 17 °F (1991)
Degree Days  
Heating Degree Days 30    
Moisture  
Dew Point 27 °F    
Average Humidity 76    
Maximum Humidity 93    
Minimum Humidity 49    
Precipitation  
Precipitation 0.00 in - - ()
Sea Level Pressure  
Sea Level Pressure 30.17 in    
Wind  
Wind Speed 1 mph (East)    
Max Wind Speed 8 mph    
Max Gust Speed -    
Visibility 10 miles    
Events      
Averages and records for this station are not official NWS values.
T = Trace of Precipitation, MM = Missing Value Source: NWS Daily Summary

Daily Weather History Graph

Daily Weather History Graph

Search for Another Location

Airport or City:

Trip Planner

Search our weather history database for the weather conditions in past years. The results will help you decide how hot, cold, wet, or windy it might be!

Date:

Astronomy

Nov. 05, 2012 Rise Set
Actual Time 7:11 AM EST 5:22 PM EST
Civil Twilight 6:42 AM EST 5:51 PM EST
Nautical Twilight 6:09 AM EST 6:24 PM EST
Astronomical Twilight 5:36 AM EST 6:57 PM EST
Moon 10:59 PM EST (11/5) 12:30 PM EST (11/5)
Length of Visible Light 11h 09m
Length of Day
10h 10m
Waning Gibbous, 63% of the Moon is Illuminated
Nov 5
Waning Gibbous
Nov 6
Last Quarter
Nov 13
New
Nov 20
First Quarter
Nov 28
Full

Hourly Weather History & Observations

Time (EST) Temp. Windchill Dew Point Humidity Pressure Visibility Wind Dir Wind Speed Gust Speed Precip Events Conditions
12:12 AM 30.2 °F - 26.6 °F 86% 30.15 in 10.0 mi Calm Calm - N/A   Clear
12:32 AM 30.2 °F - 26.6 °F 86% 30.16 in 10.0 mi Calm Calm - N/A   Clear
12:52 AM 30.2 °F - 26.6 °F 86% 30.16 in 10.0 mi Calm Calm - N/A   Clear
1:12 AM 28.4 °F - 26.6 °F 93% 30.16 in 10.0 mi Calm Calm - N/A   Clear
1:32 AM 28.4 °F - 26.6 °F 93% 30.15 in 10.0 mi Calm Calm - N/A   Clear
1:53 AM 28.4 °F - 26.6 °F 93% 30.16 in 10.0 mi Calm Calm - N/A   Scattered Clouds
2:13 AM 28.4 °F - 26.6 °F 93% 30.16 in 10.0 mi Calm Calm - N/A   Mostly Cloudy
2:33 AM 28.4 °F - 26.6 °F 93% 30.16 in 10.0 mi Calm Calm - N/A   Scattered Clouds
3:13 AM 26.6 °F - 24.8 °F 93% 30.17 in 10.0 mi Calm Calm - N/A   Clear
3:33 AM 26.6 °F - 24.8 °F 93% 30.16 in 10.0 mi Calm Calm - N/A   Clear
3:53 AM 28.4 °F - 26.6 °F 93% 30.16 in 10.0 mi Calm Calm - N/A   Clear
4:13 AM 28.4 °F - 26.6 °F 93% 30.17 in 10.0 mi Calm Calm - N/A   Clear
4:33 AM 28.4 °F 24.6 °F 26.6 °F 93% 30.16 in 10.0 mi North 3.5 mph - N/A   Scattered Clouds
4:53 AM 28.4 °F 24.6 °F 26.6 °F 93% 30.17 in 10.0 mi North 3.5 mph - N/A   Clear
5:14 AM 28.4 °F - 26.6 °F 93% 30.17 in 10.0 mi Calm Calm - N/A   Scattered Clouds
5:34 AM 30.2 °F - 26.6 °F 86% 30.17 in 10.0 mi Calm Calm - N/A   Scattered Clouds
5:54 AM 30.2 °F - 26.6 °F 86% 30.18 in 10.0 mi Calm Calm - N/A   Mostly Cloudy
6:14 AM 30.2 °F 26.7 °F 26.6 °F 86% 30.18 in 10.0 mi NNW 3.5 mph - N/A   Overcast
6:34 AM 30.2 °F - 28.4 °F 93% 30.18 in 10.0 mi Calm Calm - N/A   Overcast
6:54 AM 32.0 °F - 28.4 °F 87% 30.19 in 10.0 mi Calm Calm - N/A   Overcast
7:14 AM 32.0 °F 28.7 °F 28.4 °F 87% 30.19 in 10.0 mi North 3.5 mph - N/A   Overcast
7:34 AM 33.8 °F - 28.4 °F 81% 30.19 in 10.0 mi Calm Calm - N/A   Overcast
7:54 AM 33.8 °F - 28.4 °F 81% 30.19 in 10.0 mi Calm Calm - N/A   Overcast
8:14 AM 33.8 °F - 28.4 °F 81% 30.19 in 10.0 mi Calm Calm - N/A   Overcast
8:35 AM 35.6 °F - 28.4 °F 75% 30.19 in 10.0 mi Calm Calm - N/A   Overcast
8:55 AM 37.4 °F - 30.2 °F 75% 30.20 in 10.0 mi Calm Calm - N/A   Overcast
9:15 AM 37.4 °F 34.9 °F 30.2 °F 75% 30.20 in 10.0 mi North 3.5 mph - N/A   Overcast
9:35 AM 39.2 °F 35.9 °F 26.6 °F 61% 30.20 in 10.0 mi North 4.6 mph - N/A   Overcast
9:55 AM 39.2 °F 35.0 °F 26.6 °F 61% 30.20 in 10.0 mi North 5.8 mph - N/A   Overcast
10:15 AM 39.2 °F 37.0 °F 26.6 °F 61% 30.20 in 10.0 mi NE 3.5 mph - N/A   Mostly Cloudy
10:35 AM 39.2 °F 37.0 °F 26.6 °F 61% 30.20 in 10.0 mi NE 3.5 mph - N/A   Mostly Cloudy
10:55 AM 39.2 °F 35.9 °F 26.6 °F 61% 30.21 in 10.0 mi NNW 4.6 mph - N/A   Overcast
11:15 AM 39.2 °F - 24.8 °F 56% 30.21 in 10.0 mi Calm Calm - N/A   Mostly Cloudy
11:36 AM 39.2 °F 37.0 °F 24.8 °F 56% 30.20 in 10.0 mi ENE 3.5 mph - N/A   Scattered Clouds
11:51 AM 42.8 °F 39.3 °F 26.6 °F 53% 30.20 in 10.0 mi ENE 5.8 mph - N/A   Mostly Cloudy
12:11 PM 42.8 °F 41.1 °F 24.8 °F 49% 30.19 in 10.0 mi ESE 3.5 mph - N/A   Mostly Cloudy
12:31 PM 42.8 °F 39.3 °F 24.8 °F 49% 30.18 in 10.0 mi ESE 5.8 mph - N/A   Scattered Clouds
12:51 PM 44.6 °F 40.7 °F 26.6 °F 49% 30.18 in 10.0 mi SE 6.9 mph - N/A   Mostly Cloudy
1:11 PM 44.6 °F 43.1 °F 26.6 °F 49% 30.17 in 10.0 mi SSE 3.5 mph - N/A   Mostly Cloudy
1:31 PM 42.8 °F 38.6 °F 26.6 °F 53% 30.17 in 10.0 mi East 6.9 mph - N/A   Mostly Cloudy
1:51 PM 41.0 °F 38.0 °F 26.6 °F 57% 30.16 in 10.0 mi SE 4.6 mph - N/A   Scattered Clouds
2:31 PM 42.8 °F 40.1 °F 26.6 °F 53% 30.16 in 10.0 mi South 4.6 mph - N/A   Scattered Clouds
2:51 PM 42.8 °F 40.1 °F 26.6 °F 53% 30.16 in 10.0 mi SSE 4.6 mph - N/A   Overcast
3:12 PM 42.8 °F 38.6 °F 26.6 °F 53% 30.16 in 10.0 mi ESE 6.9 mph - N/A   Mostly Cloudy
3:52 PM 42.8 °F 38.0 °F 26.6 °F 53% 30.16 in 10.0 mi SE 8.1 mph - N/A   Clear
4:12 PM 42.8 °F 39.3 °F 26.6 °F 53% 30.16 in 10.0 mi SE 5.8 mph - N/A   Clear
4:32 PM 41.0 °F 35.8 °F 26.6 °F 57% 30.15 in 10.0 mi SSE 8.1 mph - N/A   Clear
4:52 PM 39.2 °F 35.9 °F 26.6 °F 61% 30.15 in 10.0 mi SSE 4.6 mph - N/A   Clear
5:12 PM 39.2 °F 35.9 °F 26.6 °F 61% 30.15 in 10.0 mi SE 4.6 mph - N/A   Clear
5:32 PM 37.4 °F - 26.6 °F 65% 30.15 in 10.0 mi Calm Calm - N/A   Clear
5:52 PM 37.4 °F - 26.6 °F 65% 30.16 in 10.0 mi Calm Calm - N/A   Clear
6:13 PM 33.8 °F - 26.6 °F 75% 30.16 in 10.0 mi Calm Calm - N/A   Clear
6:33 PM 33.8 °F - 26.6 °F 75% 30.17 in 10.0 mi Calm Calm - N/A   Clear
6:53 PM 33.8 °F - 26.6 °F 75% 30.17 in 10.0 mi Calm Calm - N/A   Clear
7:13 PM 30.2 °F - 26.6 °F 86% 30.16 in 10.0 mi Calm Calm - N/A   Clear
7:33 PM 30.2 °F - 26.6 °F 86% 30.16 in 10.0 mi Calm Calm - N/A   Clear
7:53 PM 30.2 °F - 24.8 °F 80% 30.16 in 10.0 mi Calm Calm - N/A   Clear
8:13 PM 28.4 °F - 24.8 °F 86% 30.17 in 10.0 mi Calm Calm - N/A   Clear
8:33 PM 28.4 °F - 24.8 °F 86% 30.16 in 10.0 mi Calm Calm - N/A   Clear
9:14 PM 28.4 °F - 24.8 °F 86% 30.16 in 10.0 mi Calm Calm - N/A   Clear
9:34 PM 28.4 °F - 24.8 °F 86% 30.16 in 10.0 mi Calm Calm - N/A   Clear
9:54 PM 26.6 °F - 24.8 °F 93% 30.16 in 10.0 mi Calm Calm - N/A   Scattered Clouds
10:34 PM 28.4 °F - 24.8 °F 86% 30.16 in 10.0 mi Calm Calm - N/A   Mostly Cloudy
10:54 PM 28.4 °F - 26.6 °F 93% 30.16 in 7.0 mi Calm Calm - N/A   Overcast
11:14 PM 28.4 °F - 26.6 °F 93% 30.15 in 7.0 mi Calm Calm - N/A   Overcast
11:34 PM 30.2 °F - 26.6 °F 86% 30.15 in 10.0 mi Calm Calm - N/A   Overcast
11:54 PM 30.2 °F - 26.6 °F 86% 30.15 in 10.0 mi Calm Calm - N/A   Overcast